TimeAKDT,TemperatureF,Dew PointF,Humidity,Sea Level PressureIn,VisibilityMPH,Wind Direction,Wind SpeedMPH,Gust SpeedMPH,PrecipitationIn,Events,Conditions,WindDirDegrees,DateUTC
12:53 AM,3.0,-6.0,66,30.01,10.0,WSW,3.5,-,N/A,,Clear,250,2014-03-28 08:53:00
1:53 AM,1.0,-7.1,69,30.02,10.0,Calm,Calm,-,N/A,,Clear,0,2014-03-28 09:53:00
2:53 AM,-2.0,-9.0,72,30.03,10.0,Calm,Calm,-,N/A,,Clear,0,2014-03-28 10:53:00
3:53 AM,-6.0,-11.0,79,30.04,10.0,Calm,Calm,-,N/A,,Clear,0,2014-03-28 11:53:00
4:53 AM,-8.0,-11.9,83,30.04,10.0,Calm,Calm,-,N/A,,Clear,0,2014-03-28 12:53:00
5:53 AM,-9.0,-14.1,79,30.04,10.0,Calm,Calm,-,N/A,,Clear,0,2014-03-28 13:53:00
6:53 AM,-9.9,-15.0,78,30.05,10.0,Calm,Calm,-,N/A,,Clear,0,2014-03-28 14:53:00
7:53 AM,-9.0,-15.0,75,30.05,10.0,Calm,Calm,-,N/A,,Clear,0,2014-03-28 15:53:00
8:53 AM,1.0,-6.0,72,30.04,10.0,Calm,Calm,-,N/A,,Clear,0,2014-03-28 16:53:00
9:53 AM,9.0,-2.9,59,30.03,10.0,Calm,Calm,-,N/A,,Clear,0,2014-03-28 17:53:00
10:53 AM,16.0,-0.9,47,30.01,10.0,Calm,Calm,-,N/A,,Clear,0,2014-03-28 18:53:00
11:53 AM,24.1,1.0,37,29.99,10.0,East,4.6,-,N/A,,Clear,80,2014-03-28 19:53:00
12:53 PM,27.0,3.0,36,29.98,10.0,NE,6.9,-,N/A,,Clear,40,2014-03-28 20:53:00
1:53 PM,30.9,3.9,32,29.96,10.0,ENE,5.8,-,N/A,,Clear,60,2014-03-28 21:53:00
2:53 PM,34.0,3.0,27,29.94,10.0,NE,9.2,-,N/A,,Clear,50,2014-03-28 22:53:00
3:53 PM,36.0,-0.0,22,29.93,10.0,ENE,9.2,-,N/A,,Clear,60,2014-03-28 23:53:00
4:53 PM,37.0,1.0,22,29.91,10.0,ENE,5.8,-,N/A,,Clear,70,2014-03-29 00:53:00
5:53 PM,37.0,1.9,23,29.90,10.0,East,5.8,-,N/A,,Clear,90,2014-03-29 01:53:00
6:53 PM,35.1,1.9,25,29.89,10.0,East,6.9,-,N/A,,Clear,100,2014-03-29 02:53:00
7:53 PM,30.0,1.0,29,29.89,10.0,Calm,Calm,-,N/A,,Clear,0,2014-03-29 03:53:00
8:53 PM,27.0,1.0,33,29.89,10.0,Variable,4.6,-,N/A,,Clear,0,2014-03-29 04:53:00
9:53 PM,21.0,1.9,44,29.90,10.0,Calm,Calm,-,N/A,,Clear,0,2014-03-29 05:53:00
10:53 PM,12.9,-0.9,54,29.91,10.0,Variable,3.5,-,N/A,,Clear,0,2014-03-29 06:53:00
11:53 PM,6.1,-4.0,63,29.91,10.0,SSW,3.5,-,N/A,,Clear,210,2014-03-29 07:53:00